Weather History for Calgary Springbank, AB

Change the Weather History Date:

Sunday, October 17, 2010

  Actual Average Record
Temperature  
Mean Temperature 33 °F -  
Max Temperature 51 °F 40 °F 66 °F (2008)
Min Temperature 15 °F 19 °F 14 °F (1996)
Degree Days  
Heating Degree Days 32    
Moisture  
Dew Point 23 °F    
Average Humidity 65    
Maximum Humidity 87    
Minimum Humidity 37    
Precipitation  
Precipitation 0.00 in - - ()
Sea Level Pressure  
Sea Level Pressure 30.25 in    
Wind  
Wind Speed 5 mph ()    
Max Wind Speed 8 mph    
Max Gust Speed -    
Visibility 15.0 miles    
Events      
Averages and records for this station are not official NWS values.
T = Trace of Precipitation, MM = Missing Value Source: Averaged Metar Reports

Daily Weather History Graph

Daily Weather History Graph

Search for Another Location

Airport:

Trip Planner

Search our weather history database for the weather conditions in past years. The results will help you decide how hot, cold, wet, or windy it might be!

Date:

Astronomy

Oct. 17, 2010 Rise Set
Actual Time 8:04 AM MDT 6:40 PM MDT
Civil Twilight 7:30 AM MDT 7:13 PM MDT
Nautical Twilight 6:52 AM MDT 7:52 PM MDT
Astronomical Twilight 6:14 AM MDT 8:30 PM MDT
Moon 4:30 PM MDT (10/17) 2:26 AM MDT (10/17)
Length of Visible Light 11h 42m
Length of Day
10h 35m
Waxing Gibbous, 76% of the Moon is Illuminated
Oct 17
Waxing Gibbous
Oct 22
Full
Oct 30
Last Quarter
Nov 5
New
Nov 13
First Quarter

Hourly Weather History & Observations

Time (MDT) Temp. Windchill Dew Point Humidity Pressure Visibility Wind Dir Wind Speed Gust Speed Precip Events Conditions
5:00 AM 15.8 °F 5.1 °F 6.8 °F 68% 30.24 in 15.0 mi NW 8.1 mph - N/A   Clear
6:00 AM 19 °F - 10 °F 56% 30.24 in 15 mi NW 5.8 mph - -  
6:00 AM 19.4 °F 11.5 °F 10.4 °F 68% 30.24 in 15.0 mi NW 5.8 mph - N/A   Clear
7:00 AM 17.6 °F 8.2 °F 12.2 °F 79% 30.25 in 15.0 mi WNW 6.9 mph - N/A   Clear
8:00 AM 15.8 °F 6.1 °F 6.8 °F 68% 30.25 in 30.0 mi NW 6.9 mph - N/A   Clear
9:00 AM 19.4 °F 11.5 °F 12.2 °F 74% 30.29 in 30.0 mi NW 5.8 mph - N/A   Clear
10:00 AM 26.6 °F 22.6 °F 21.2 °F 80% 30.30 in 30.0 mi NW 3.5 mph - N/A   Clear
11:00 AM 33.8 °F - 30.2 °F 87% 30.30 in 30.0 mi NNW 2.3 mph - N/A   Partly Cloudy
12:00 PM 40 °F - 33 °F 67% 30.25 in 28 mi NNW 2.3 mph - -   Clear
12:00 PM 39.2 °F 37.0 °F 33.8 °F 81% 30.25 in 30.0 mi North 3.5 mph - N/A   Partly Cloudy
1:00 PM 46.4 °F 42.9 °F 37.4 °F 71% 30.25 in 30.0 mi West 6.9 mph - N/A   Partly Cloudy
3:00 PM 50.0 °F - 30.2 °F 47% 30.22 in 30.0 mi WNW 2.3 mph - N/A   Partly Cloudy
4:00 PM 50.0 °F - 24.8 °F 37% 30.22 in 30.0 mi West 4.6 mph - N/A   Partly Cloudy
5:00 PM 51.8 °F - 26.6 °F 38% 30.22 in 30.0 mi North 5.8 mph - N/A   Partly Cloudy
6:00 PM 47 °F - 30 °F 40% 30.22 in 28 mi South 8.1 mph - -   Clear
6:00 PM 46.4 °F 42.4 °F 30.2 °F 53% 30.22 in 30.0 mi South 8.1 mph - N/A   Partly Cloudy
7:00 PM 41.0 °F 35.8 °F 30.2 °F 65% 30.22 in 30.0 mi South 8.1 mph - N/A   Partly Cloudy
8:00 PM 35.6 °F 29.2 °F 26.6 °F 70% 30.22 in 15.0 mi SSW 8.1 mph - N/A   Partly Cloudy
9:00 PM 33.8 °F 27.0 °F 26.6 °F 75% 30.26 in 15.0 mi SW 8.1 mph - N/A   Clear
10:00 PM 32.0 °F - 26.6 °F 80% 30.27 in 15.0 mi West 2.3 mph - N/A   Partly Cloudy